Flag for Austria Weather past 2 weeks in Klagenfurt, Carinthia, Austria

Now
61 °F

Partly cloudy.


Feels Like: 61 °F
Forecast: 57 / 75 °F
Wind: 3 mph from East

Location: Klagenfurt-Flughafen

Current Time: Sep 19, 2014 at 10:32:14 PM

Latest Report: Sep 19, 2014 at 9:50 PM


Visibility: N/A

Pressure: 30.07 "Hg

Humidity: 83%

Dew point: 55 °F

Location of KlagenfurtLocation

Historic Weather in Klagenfurt — Graph

°F

Klagenfurt temperature yesterday

Maximum temperature yesterday: 70 °F (at 5:20 PM)
Minimum temperature yesterday: 48 °F (at 3:50 AM)
Average temperature yesterday: 59 °F

Past Weeks' High & Low Weather Summary

 TemperatureHumidityPressure
High77 °F (Sep 8, 4:50 PM)100% (Sep 4, 10:50 PM)30.12 "Hg (Sep 4, 10:50 PM)
Low48 °F (Sep 18, 3:50 AM)47% (Sep 8, 4:50 PM)29.89 "Hg (Sep 12, 12:50 AM)
Average60 °F87%30.03 "Hg
* Reported Sep 4 9:20 PM — Sep 19 9:20 PM, Klagenfurt, Weather by CustomWeather, © 2014

Note: Actual official high and low records may vary slightly from our data, if they occured in-between our weather recording intervals... More about our weather records

Advertising

Klagenfurt weather history for previous 24 hours

 ConditionsComfort  
Time TempWeatherWind HumidityBarometerVisibility
9:20 PM
Sep 19
63 °FPartly cloudy.2 mph77%30.07 "HgN/A
8:50 PM63 °FPassing clouds.2 mph77%30.07 "HgN/A
8:20 PM68 °FPartly cloudy.2 mph64%30.04 "HgN/A
7:50 PM68 °FScattered clouds.3 mph64%30.04 "HgN/A
7:20 PM68 °FScattered clouds.3 mph69%30.04 "HgN/A
6:50 PM70 °FScattered clouds.5 mph64%30.01 "HgN/A
6:20 PM72 °FScattered clouds.7 mph57%30.01 "HgN/A
5:50 PM75 °FScattered clouds.6 mph50%30.01 "HgN/A
5:20 PM75 °FScattered clouds.7 mph50%30.01 "HgN/A
4:50 PM75 °FPartly sunny.5 mph50%30.01 "HgN/A
4:20 PM75 °FPartly sunny.5 mph54%30.01 "HgN/A
3:50 PM75 °FPartly sunny.7 mph54%30.04 "HgN/A
3:20 PM75 °FPartly sunny.6 mph50%30.04 "HgN/A
2:50 PM75 °FPartly sunny.3 mph54%30.04 "HgN/A
2:20 PM75 °FPartly sunny.5 mph54%30.04 "HgN/A
1:50 PM73 °FPartly sunny.3 mph53%30.04 "HgN/A
1:20 PM72 °FPartly sunny.3 mph61%30.07 "HgN/A
12:50 PM72 °FScattered clouds.2 mph61%30.07 "HgN/A
12:20 PM70 °FScattered clouds.2 mph64%30.07 "HgN/A
11:50 AM68 °FScattered clouds.3 mph69%30.07 "HgN/A
11:20 AM66 °FScattered clouds.2 mph73%30.09 "HgN/A
10:50 AM64 °FPassing clouds.2 mph73%30.09 "HgN/A
10:20 AM63 °FPassing clouds.1 mph77%30.09 "HgN/A
9:50 AM61 °FPassing clouds.1 mph83%30.09 "HgN/A
9:20 AM59 °FPassing clouds.1 mph82%30.09 "Hg5 mi
8:50 AM55 °FFog.2 mph94%30.09 "Hg3 mi
8:20 AM54 °FLight fog.1 mph100%30.09 "Hg1 mi
7:50 AM52 °FLight fog.2 mph100%30.09 "Hg1 mi
7:20 AM52 °FLight fog.3 mph100%30.09 "Hg1 mi
6:50 AM52 °FLight fog.3 mph100%30.07 "Hg1 mi
6:20 AM52 °FCool.3 mph100%30.07 "Hg1 mi
5:50 AM52 °FFog.2 mph100%30.07 "Hg3 mi
5:20 AM52 °FFog.3 mph100%30.07 "Hg3 mi
4:50 AM54 °FFog.2 mph94%30.07 "Hg3 mi
4:20 AM54 °FFog.2 mph100%30.07 "Hg3 mi
3:50 AM54 °FFog.2 mph100%30.07 "Hg3 mi
3:20 AM55 °FPassing clouds.2 mph94%30.09 "Hg4 mi
2:50 AM55 °FPassing clouds.1 mph94%30.09 "Hg4 mi
2:20 AM55 °FCool.2 mph94%30.09 "Hg5 mi
1:50 AM57 °FPassing clouds.1 mph94%30.09 "Hg5 mi
1:20 AM57 °FOvercast.2 mph94%30.09 "HgN/A
12:50 AM57 °FOvercast.1 mph94%30.09 "HgN/A
12:20 AM59 °FPassing clouds.1 mph88%30.09 "HgN/A
11:50 PM
Sep 18
59 °FPassing clouds.1 mph82%30.09 "HgN/A
11:20 PM59 °FPassing clouds.1 mph88%30.09 "HgN/A
10:50 PM59 °FPassing clouds.1 mph88%30.09 "HgN/A
10:20 PM59 °FPassing clouds.2 mph88%30.09 "HgN/A
Weather by CustomWeather, © 2014

See weather overviewHow to use our weather pages